Skip Page Navigation
NASA JPL Caltech
NASA Logo - Jet Propulsion Laboratory + View the NASA Portal
+ Center for Near-Earth Object Studies
JPL Home Earth Solar System Stars & Galaxies Technology
JPL Solar System Dynamics
BODIES ORBITS EPHEMERIDES TOOLS PHYSICAL DATA DISCOVERY FAQ SITE MAP
JPL Small-Body Database Browser
Search: [ help ]  
129554 (1996 TC63)
Classification: Main-belt Asteroid          SPK-ID: 2129554
Ephemeris | Orbit Diagram | Orbital Elements | Mission Design | Physical Parameters | Discovery Circumstances | Close-Approach Data ]

[ show orbit diagram ]
Orbital Elements at Epoch 2459000.5 (2020-May-31.0) TDB
Reference: JPL 23 (heliocentric ecliptic J2000)
 Element Value Uncertainty (1-sigma)   Units 
e .1095654622501279 5.6921e-08  
a 2.410886451175914 1.3266e-08 au
q 2.146736562720255 1.3401e-07 au
i 13.79053304310699 4.3278e-06 deg
node 179.599653049604 1.8596e-05 deg
peri 221.1128342786497 2.6195e-05 deg
M 83.79443808246432 1.5934e-05 deg
tp 2458682.244253940144
(2019-Jul-17.74425394)
6.074e-05 TDB
period 1367.299205095149
3.74
1.1285e-05
3.09e-08
d
yr
n .2632927735630095 2.1731e-09 deg/d
Q 2.675036339631574 1.4719e-08 au
  Orbit Determination Parameters
   # obs. used (total)      818  
   data-arc span      8520 days (23.33 yr)  
   first obs. used      1996-10-06  
   last obs. used      2020-02-03  
   planetary ephem.      DE431  
   SB-pert. ephem.      SB431-N16  
   condition code      0  
   norm. resid. RMS      .52478  
   source      ORB  
   producer      Otto Matic  
   solution date      2020-Feb-24 07:04:57  

Additional Information
 Earth MOID = 1.16847 au 
 Jupiter MOID = 2.74859 au 
 T_jup = 3.472 
[ show covariance matrix ]

Ephemeris | Orbit Diagram | Orbital Elements | Mission Design | Physical Parameters | Discovery Circumstances | Close-Approach Data ]

Physical Parameter Table
Parameter Symbol Value Units Sigma Reference Notes
absolute magnitude H 15.4   n/a MPO453774  
diameter diameter 3.228 km 0.369 urn:nasa:pds:neowise_diameters_albedos::2.0[mainbelt] (http://adsabs.harvard.edu/abs/2012ApJ...759L...8M)  
geometric albedo albedo 0.141   0.027 urn:nasa:pds:neowise_diameters_albedos::2.0[mainbelt] (http://adsabs.harvard.edu/abs/2012ApJ...759L...8M)  

129554 (1996 TC63)          Discovered 1996-Oct-06 by Elst, E. W. at La Silla
Reference: 20060711/Numbers.arcLast Updated: 2006-07-17

[ show close-approach data ]
Alternate Designations
 1996 TC63 = 2000 SO225 
Ephemeris | Orbit Diagram | Orbital Elements | Mission Design | Physical Parameters | Discovery Circumstances | Close-Approach Data ]
ABOUT SSD CREDITS/AWARDS PRIVACY/COPYRIGHT GLOSSARY LINKS
FirstGov 2020-Oct-31 06:05 UT
(server date/time)  
NASA Home Page
Site Manager:   Ryan S. Park
Webmaster  Alan B. Chamberlin